Franklin, PA

4:37 PM EDT on October 15, 2019 (GMT -0400)
Venango Regional

Weather History for KFKL - September, 2019

Change the Weather History Date:

Friday, September 20, 2019

  Actual Average Record
Temperature  
Mean Temperature 62 °F -  
Max Temperature 79 °F 73 °F 92 °F (1932)
Min Temperature 48 °F 50 °F 32 °F (1929)
Degree Days  
Heating Degree Days 2    
Growing Degree Days 12 (Base 50)    
Moisture  
Dew Point 53 °F    
Average Humidity 73    
Maximum Humidity 96    
Minimum Humidity 43    
Precipitation  
Precipitation 0.00 in - - ()
Sea Level Pressure  
Sea Level Pressure 30.24 in    
Wind  
Wind Speed 3 mph (SSE)    
Max Wind Speed 7 mph    
Max Gust Speed -    
Visibility 10 miles    
Events      
Averages and records for this station are not official NWS values.
T = Trace of Precipitation, MM = Missing Value Source: NWS Daily Summary

Daily Weather History Graph

Daily Weather History Graph

Search for Another Location

Airport or City:

Astronomy

Sep. 20, 2019 Rise Set
Actual Time 7:04 AM EDT 7:20 PM EDT
Civil Twilight 6:36 AM EDT 7:48 PM EDT
Nautical Twilight 6:04 AM EDT 8:20 PM EDT
Astronomical Twilight 5:31 AM EDT 8:53 PM EDT
Moon 11:05 PM EDT (9/20) 1:11 PM EDT (9/20)
Length of Visible Light 13h 11m
Length of Day
12h 15m
Waning Gibbous, 65% of the Moon is Illuminated
Sep 20
Waning Gibbous
Sep 21
Last Quarter
Sep 28
New
Oct 5
First Quarter
Oct 13
Full

Hourly Weather History & Observations

Time (EDT) Temp. Dew Point Humidity Pressure Visibility Wind Dir Wind Speed Gust Speed Precip Events Conditions
12:56 AM 55.0 °F 48.0 °F 77% 30.24 in 10.0 mi ESE 4.6 mph - N/A   Clear
1:56 AM 53.1 °F 48.0 °F 83% 30.23 in 10.0 mi ESE 4.6 mph - N/A   Clear
2:56 AM 51.1 °F 46.9 °F 86% 30.23 in 10.0 mi ESE 3.5 mph - N/A   Clear
3:56 AM 48.9 °F 46.9 °F 93% 30.23 in 10.0 mi ESE 4.6 mph - N/A   Clear
4:56 AM 50.0 °F 46.9 °F 89% 30.24 in 10.0 mi ESE 3.5 mph - N/A   Clear
5:56 AM 48.0 °F 46.0 °F 93% 30.26 in 10.0 mi Calm Calm - N/A   Clear
6:56 AM 48.0 °F 46.0 °F 93% 30.26 in 10.0 mi Calm Calm - N/A   Clear
7:56 AM 50.0 °F 48.0 °F 93% 30.27 in 10.0 mi SSE 3.5 mph - N/A   Clear
8:56 AM 55.0 °F 48.9 °F 80% 30.28 in 10.0 mi South 5.8 mph - N/A   Clear
9:56 AM 60.1 °F 52.0 °F 75% 30.28 in 10.0 mi South 5.8 mph - N/A   Clear
10:56 AM 66.0 °F 55.0 °F 68% 30.27 in 10.0 mi South 3.5 mph - N/A   Clear
11:56 AM 70.0 °F 57.0 °F 63% 30.26 in 10.0 mi Calm Calm - N/A   Clear
12:56 PM 73.9 °F 57.9 °F 57% 30.24 in 10.0 mi Variable 3.5 mph - N/A   Clear
1:56 PM 75.9 °F 55.0 °F 48% 30.22 in 10.0 mi Variable 3.5 mph - N/A   Clear
2:56 PM 77.0 °F 53.1 °F 43% 30.21 in 9.0 mi Calm Calm - N/A   Clear
3:56 PM 77.0 °F 55.9 °F 48% 30.20 in 9.0 mi SSE 4.6 mph - N/A   Clear
4:56 PM 77.0 °F 55.9 °F 48% 30.20 in 10.0 mi South 6.9 mph - N/A   Clear
5:56 PM 77.0 °F 54.0 °F 45% 30.20 in 10.0 mi WSW 3.5 mph - N/A   Clear
6:56 PM 72.0 °F 55.9 °F 57% 30.22 in 10.0 mi Calm Calm - N/A   Clear
7:56 PM 68.0 °F 55.0 °F 63% 30.22 in 10.0 mi Calm Calm - N/A   Clear
8:56 PM 64.0 °F 55.9 °F 75% 30.23 in 10.0 mi Calm Calm - N/A   Clear
9:56 PM 62.1 °F 57.9 °F 86% 30.24 in 10.0 mi Calm Calm - N/A   Clear
10:56 PM 60.1 °F 57.9 °F 93% 30.24 in 10.0 mi Calm Calm - N/A   Clear
11:56 PM 59.0 °F 57.9 °F 96% 30.23 in 10.0 mi Calm Calm - N/A   Clear